Location: Gudip?du
(17.0263°N, 80.8301°E)
Time: 05:59:58
(UTC+00:00)

USA 186 - Pass Details

Date: 03 August 2024
Orbit: 373 x 421 km, 97.1° (Epoch: 09 September)

Event Time Altitude Azimuth Distance (km) Brightness Sun altitude
Exits shadow 13:51:33 11° 74° (ENE) 1,313 3.8 -10.5°
Drops below altitude 10° 13:52:24 10° 57° (ENE) 1,375 4.0 -10.7°
Sets 13:55:29 0° 20° (NNE) 2,223 5.5 -11.4°
